Regional Weather Roundup
Issued by NWS

Home | Current Version | Previous Version | Text Only | Print | Product List | Glossary On
Versions: 1 2 3 4 5 6 7 8 9 10 11 12 13 14 15 16 17 18 19 20 21 22 23 24 25 26 27
000
ASUS46 KPQR 242310
RWROR

OREGON REGIONAL WEATHER ROUNDUP
NATIONAL WEATHER SERVICE PORTLAND OR
400 PM PDT MON APR 24 2017

NOTE: "FAIR" INDICATES FEW OR NO CLOUDS BELOW 12,000 FEET WITH
NO SIGNIFICANT WEATHER AND/OR OBSTRUCTIONS TO VISIBILITY.

ORZ001>013-250000-
NORTHWEST OREGON


CITY           SKY/WX    TMP DP  RH WIND       PRES   REMARKS
ASTORIA        CLOUDY    53  43  68 NW9       29.80R
NEWPORT        CLOUDY    52  46  82 W13G18    29.92R
PORTLAND       PTSUNNY   51  46  83 NW12      29.77R
VANCOUVER WA   PTSUNNY   52  47  83 N9G17     29.76R
SCAPPOOSE      CLOUDY    51  45  79 N9        29.77R
HILLSBORO      LGT RAIN  53  48  83 N13       29.76R
AURORA         PTSUNNY   58  45  62 W13G23    29.77R
MCMINNVILLE    MOSUNNY   55  44  66 W17G28    29.79R
SALEM          PTSUNNY   55  45  68 W23G30    29.79R
CORVALLIS      PTSUNNY   54  45  71 NW8       29.83R
EUGENE         PTSUNNY   54  47  77 W12       29.86R
$$

ORZ021-028-250000-
SOUTHWEST OREGON


CITY           SKY/WX    TMP DP  RH WIND       PRES   REMARKS
NORTH BEND     CLOUDY    52  50  93 W13       29.98S
BROOKINGS      CLOUDY    50  49  96 VRB6      30.03F
ROSEBURG       LGT RAIN  55  47  74 SW8G18    29.92R
SEXTON SUMMIT  CLOUDY    38  36  92 W8G18     29.90R WCI  32
MEDFORD        LGT RAIN  54  42  64 NW10      29.92R
$$

ORZ014>016-041-250000-
COLUMBIA GORGE


CITY           SKY/WX    TMP DP  RH WIND       PRES   REMARKS
TROUTDALE      PTSUNNY   51  46  83 NW8       29.76R
HOOD RIVER     RAIN      48  45  87 N3        29.71S
THE DALLES     LGT RAIN  51  45  79 NW9       29.70S
$$

ORZ029>031-041-044-049-050-061>064-502-503-505>511-250000-
EASTERN OREGON


CITY           SKY/WX    TMP DP  RH WIND       PRES   REMARKS
REDMOND        CLOUDY    53  30  41 S8        29.70F
BEND           PTSUNNY   50  34  53 SW17G28   29.70F
PRINEVILLE     CLOUDY    48  37  66 E5        29.70F
KLAMATH FALLS  LGT RAIN  48  37  65 W30G40    29.84R
LAKEVIEW       CLOUDY    45  32  61 SW15G32   29.81S
HERMISTON      LGT RAIN  56  46  69 SW21G26   29.69R
PENDLETON      PTSUNNY   54  44  69 W9        29.68S
JOHN DAY       CLOUDY    47  36  67 W9G25     29.72S
MEACHAM        CLOUDY    45  38  76 CALM      29.68F
LA GRANDE      CLOUDY    54  43  66 NW18      29.67S
BAKER CITY     PTSUNNY   50  36  58 N10       29.67S
BURNS          CLOUDY    42  36  79 W15       29.75S
ROME             N/A     50  36  58 SW15G36   29.72R
ONTARIO        LGT RAIN  56  38  50 CALM      29.68S
$$




USA.gov is the U.S. government's official web portal to all federal, state and local government web resources and services.